NOAA NWS Hourly Roundups by Site

Regional Weather Roundup for Bismarck, ND

To Select Another Site Choose from List

Select Site:  

000
ASUS43 KBIS 260910
RWRBIS

NWR BROADCAST TEXT
NATIONAL WEATHER SERVICE BISMARCK ND
400 AM CDT WED SEP 26 2018

NOTE: "FAIR" INDICATES FEW OR NO CLOUDS BELOW 12,000 FEET WITH NO
SIGNIFICANT WEATHER AND/OR OBSTRUCTIONS TO VISIBILITY.


CITY           SKY/WX    TMP DP  RH WIND       PRES   REMARKS
WILLISTON      CLEAR     36  33  89 S5        30.08F
MINOT          CLEAR     38  33  82 SW12      30.05F
MINOT AFB      CLEAR     37  33  84 SW10      30.03F
BISMARCK       CLEAR     34  32  92 CALM      30.13F
DICKINSON      CLEAR     34  30  85 SW9       30.11F
GARRISON         N/A     37  35  92 W9        30.08F
HETTINGER ARPT CLEAR     33  29  85 NW7       30.17F
JAMESTOWN      CLEAR     40  38  93 W7        30.08S
CARRINGTON     FAIR      36  36 100 W9        30.09F
HAZEN          FAIR      34  34 100 W5        30.13F
LINTON           N/A    N/A N/A N/A SW7       30.16F
MANDAN         FAIR     N/A N/A N/A W6        30.13F
OAKES          FAIR      41  41 100 W12       30.10R
RUGBY          FAIR      30  32 100 SW7       30.04F
STANLEY          N/A     34  34 100 SW6       30.06F
TIOGA          FAIR      36  36 100 W5        30.07F
WATFORD CITY   FAIR      34  34 100 SW6       30.09F
$$

CITY           SKY/WX    TMP DP  RH WIND       PRES   REMARKS
GRAND FORKS    FAIR      38  38 100 W8        30.01S
GRAND FORKS AF FAIR      39  36  91 NW8       30.02S
DEVILS LAKE    FAIR      39  37  92 W10       30.04F
FARGO          CLOUDY    43  41  93 W7        30.03R
CANDO          PTSUNNY   37  37 100 W7        30.05F
CAVALIER       FAIR      39 N/A N/A W7        29.99S
GRAFTON        FAIR      41  39  93 W9        30.02S
GWINNER          N/A     43  41  93 W10       30.08R
LANGDON        FAIR      34  34 100 W9        30.00F
ROLLA          FAIR      34  34 100 W7        30.01F
WALHALLA         N/A     41  41 100 W6        29.99S
$$

CITY           SKY/WX    TMP DP  RH WIND       PRES   REMARKS
ABERDEEN       CLEAR     43  40  89 W12       30.13R
MOBRIDGE       CLEAR     43  38  82 NW6       30.14F
BUFFALO          N/A     36  30  79 W9        30.16F
RAPID CITY     CLEAR     36  29  75 NW9       30.25F
GLASGOW        MOCLDY    43  37  79 CALM      30.07F
SIDNEY         CLEAR     35  33  92 S7        30.10F
WOLF POINT     CLEAR     34  34 100 W3        30.10F
GLENDIVE       CLEAR     38  33  82 S6        30.13F
MILES CITY     CLEAR     35  33  92 S9        30.16F
BAKER          CLEAR     42  31  64 SW12      30.16F
$$

CITY           SKY/WX    TMP DP  RH WIND       PRES   REMARKS
BILLINGS       PTCLDY    40  32  73 SW10      30.17F
GREAT FALLS    PTCLDY    41  33  73 S9        30.14F
REGINA         CLOUDY    37  34  87 S6        29.95F
ESTEVAN        CLEAR     32  30  93 SW6       30.01F
$$



 

View Past Reports for Bismarck, ND.

Products Courtesy of NOAA-NWS
NWS Information Parsing Script by Ken True at Saratoga Weather - Script by SE Lincoln Weather.